GW5351 Weather Reports


Display with metric or nautical units.
time (UTC)temp
F
wind
direction
speed
MPH
gust
MPH
rain 1hr
in
rain 24hr
in
rain mn
in
humidity
%
barometer
mb
20260503221237 80 227 0.0 2.0 0.00 0.00 0.00 38 1019.3
20260503220733 79 225 0.0 3.0 0.00 0.00 0.00 37 1019.4
20260503220230 80 187 2.0 6.0 0.00 0.00 0.00 38 1019.5
20260503215727 81 156 0.0 2.0 0.00 0.00 0.00 37 1019.3
20260503215224 80 218 1.0 4.0 0.00 0.00 0.00 38 1019.1
20260503214722 80 232 2.0 3.0 0.00 0.00 0.00 37 1019.1
20260503214218 80 202 1.0 4.0 0.00 0.00 0.00 35 1019.1
20260503213717 81 208 0.0 4.0 0.00 0.00 0.00 35 1019.3
20260503213213 81 226 2.0 4.0 0.00 0.00 0.00 35 1019.5
20260503212710 81 147 2.0 3.0 0.00 0.00 0.00 36 1019.7
20260503212208 81 233 0.0 2.0 0.00 0.00 0.00 35 1019.9
20260503211706 82 227 3.0 4.0 0.00 0.00 0.00 34 1019.9
20260503211201 81 181 2.0 4.0 0.00 0.00 0.00 34 1020.0
20260503210657 81 210 1.0 4.0 0.00 0.00 0.00 34 1020.1
20260503210154 81 205 3.0 7.0 0.00 0.00 0.00 37 1020.0
20260503205649 81 202 2.0 6.0 0.00 0.00 0.00 36 1019.9
20260503205146 81 263 4.0 6.0 0.00 0.00 0.00 36 1020.0
20260503204643 82 223 2.0 4.0 0.00 0.00 0.00 34 1020.3
20260503204141 82 253 1.0 3.0 0.00 0.00 0.00 34 1020.2
20260503203637 81 152 2.0 3.0 0.00 0.00 0.00 37 1020.3
20260503203135 80 267 1.0 2.0 0.00 0.00 0.00 38 1020.5
20260503202632 81 253 2.0 4.0 0.00 0.00 0.00 37 1020.5
20260503202130 82 202 2.0 6.0 0.00 0.00 0.00 38 1020.5
20260503201628 82 296 3.0 4.0 0.00 0.00 0.00 38 1020.7
20260503201125 82 251 1.0 2.0 0.00 0.00 0.00 39 1020.9
20260503200621 82 180 3.0 9.0 0.00 0.00 0.00 36 1020.9
20260503200118 81 242 0.0 1.0 0.00 0.00 0.00 36 1021.0
20260503195615 80 241 0.0 3.0 0.00 0.00 0.00 37 1021.2
20260503195112 81 152 3.0 4.0 0.00 0.00 0.00 36 1021.3
20260503194609 81 214 1.0 3.0 0.00 0.00 0.00 35 1021.3
20260503194103 81 323 1.0 4.0 0.00 0.00 0.00 39 1021.3
20260503193600 81 171 4.0 8.0 0.00 0.00 0.00 36 1021.4
20260503193056 82 141 4.0 4.0 0.00 0.00 0.00 36 1021.6
20260503192552 81 200 2.0 3.0 0.00 0.00 0.00 37 1021.5
20260503192048 82 233 1.0 4.0 0.00 0.00 0.00 38 1021.6
20260503191545 81 233 1.0 1.0 0.00 0.00 0.00 38 1021.8
20260503191042 81 294 3.0 4.0 0.00 0.00 0.00 36 1021.9
20260503190539 81 195 1.0 3.0 0.00 0.00 0.00 36 1021.9
20260503190036 81 234 1.0 2.0 0.00 0.00 0.00 39 1022.0
20260503185533 81 209 0.0 2.0 0.00 0.00 0.00 40 1022.1
20260503185032 82 213 0.0 4.0 0.00 0.00 0.00 39 1022.0
20260503184528 81 232 2.0 3.0 0.00 0.00 0.00 38 1022.3
20260503184025 80 230 2.0 3.0 0.00 0.00 0.00 40 1022.1
20260503183522 80 166 1.0 2.0 0.00 0.00 0.00 38 1022.3
20260503183019 79 248 2.0 3.0 0.00 0.00 0.00 40 1022.4
20260503182517 80 179 4.0 4.0 0.00 0.00 0.00 37 1022.5
20260503182015 79 169 2.0 3.0 0.00 0.00 0.00 40 1022.5
20260503181512 80 258 2.0 3.0 0.00 0.00 0.00 40 1022.6
20260503181008 80 194 1.0 3.0 0.00 0.00 0.00 37 1022.8
20260503180506 80 219 0.0 1.0 0.00 0.00 0.00 42 1022.7
20260503180002 79 241 1.0 1.0 0.00 0.00 0.00 41 1022.8
20260503175500 80 245 2.0 4.0 0.00 0.00 0.00 40 1023.1
20260503174956 79 229 2.0 4.0 0.00 0.00 0.00 39 1023.2
20260503174454 79 209 0.0 3.0 0.00 0.00 0.00 43 1023.2
20260503173949 78 163 1.0 3.0 0.00 0.00 0.00 41 1023.4
20260503173445 79 234 4.0 6.0 0.00 0.00 0.00 40 1023.4
20260503172942 78 173 2.0 3.0 0.00 0.00 0.00 40 1023.6
20260503172440 79 207 0.0 3.0 0.00 0.00 0.00 42 1023.6
20260503171936 79 227 1.0 3.0 0.00 0.00 0.00 42 1023.7
20260503171433 79 262 2.0 3.0 0.00 0.00 0.00 43 1023.9
20260503170931 78 182 4.0 4.0 0.00 0.00 0.00 40 1023.8
20260503170426 79 175 3.0 4.0 0.00 0.00 0.00 41 1023.9
20260503150819 74 225 3.0 4.0 0.00 0.00 0.00 54 1023.8
20260503150315 74 185 2.0 3.0 0.00 0.00 0.00 56 1023.6
20260503140239 68 214 0.0 2.0 0.00 0.00 0.00 72 1023.7
20260503131209 56 271 0.0 0.0 0.00 0.00 0.00 99 1023.1
20260503130707 56 271 0.0 0.0 0.00 0.00 0.00 99 1022.9
20260503130204 55 271 0.0 0.0 0.00 0.00 0.00 99 1023.0
20260503120129 50 271 0.0 0.0 0.00 0.00 0.00 99 1022.7
20260503110556 51 271 0.0 0.0 0.00 0.00 0.00 99 1022.4
20260503090444 52 271 0.0 0.0 0.00 0.00 0.00 99 1021.8
20260503081410 53 271 0.0 0.0 0.00 0.00 0.00 99 1021.8
20260503080907 53 271 0.0 0.0 0.00 0.00 0.00 99 1021.9
20260503080404 53 271 0.0 0.0 0.00 0.00 0.00 99 1022.0
20260503072840 54 271 0.0 0.0 0.00 0.00 0.00 99 1021.9
20260503072337 54 271 0.0 0.0 0.00 0.00 0.00 99 1022.0
20260503071833 54 271 0.0 0.0 0.00 0.00 0.00 99 1022.0
20260503071331 54 271 0.0 0.0 0.00 0.00 0.00 99 1021.9
20260503070827 54 271 0.0 0.0 0.00 0.00 0.00 99 1022.1
20260503070325 54 271 0.0 0.0 0.00 0.00 0.00 99 1022.2
20260503060256 55 271 0.0 0.0 0.00 0.00 0.00 98 1022.1
20260503054743 56 271 0.0 0.0 0.00 0.00 0.00 97 1022.2
20260503054240 56 271 0.0 0.0 0.00 0.00 0.00 97 1022.1
20260503053738 56 271 0.0 0.0 0.00 0.00 0.00 97 1022.2
20260503053236 56 271 0.0 0.0 0.00 0.00 0.00 97 1022.2
20260503052732 56 271 0.0 0.0 0.00 0.00 0.00 97 1021.9
20260503052229 56 271 0.0 0.0 0.00 0.00 0.00 97 1021.8
20260503051724 56 271 0.0 0.0 0.00 0.00 0.00 97 1021.9
20260503051222 56 271 0.0 0.0 0.00 0.00 0.00 97 1021.8
20260503050718 56 271 0.0 0.0 0.00 0.00 0.00 97 1022.0
20260503050215 56 271 0.0 0.0 0.00 0.00 0.00 96 1021.8
20260503045712 56 271 0.0 0.0 0.00 0.00 0.00 96 1021.9
20260503045210 56 271 0.0 0.0 0.00 0.00 0.00 96 1021.9
20260503044706 57 271 0.0 0.0 0.00 0.00 0.00 96 1021.8
20260503044204 57 271 0.0 0.0 0.00 0.00 0.00 95 1021.8
20260503043700 57 271 0.0 0.0 0.00 0.00 0.00 95 1021.6
20260503043158 57 271 0.0 0.0 0.00 0.00 0.00 95 1021.8
20260503042653 57 271 0.0 0.0 0.00 0.00 0.00 95 1021.9
20260503042150 58 271 0.0 0.0 0.00 0.00 0.00 94 1021.6
20260503041646 58 271 0.0 0.0 0.00 0.00 0.00 94 1021.5
20260503041144 58 271 0.0 0.0 0.00 0.00 0.00 94 1021.6
20260503040641 58 271 0.0 0.0 0.00 0.00 0.00 94 1021.6
20260503040139 58 271 0.0 0.0 0.00 0.00 0.00 94 1021.6
20260503035635 58 271 0.0 0.0 0.00 0.00 0.00 93 1021.8
20260503035133 58 271 0.0 0.0 0.00 0.00 0.00 93 1021.6
20260503034630 58 271 0.0 0.0 0.00 0.00 0.00 93 1021.5
20260503034127 59 271 0.0 0.0 0.00 0.00 0.00 93 1021.2
20260503033624 59 271 0.0 0.0 0.00 0.00 0.00 93 1021.3
20260503033122 59 271 0.0 0.0 0.00 0.00 0.00 93 1021.3
20260503032620 59 271 0.0 0.0 0.00 0.00 0.00 92 1021.1
20260503032118 59 271 0.0 0.0 0.00 0.00 0.00 92 1021.1
20260503031616 59 271 0.0 0.0 0.00 0.00 0.00 91 1021.0
20260503031113 59 271 0.0 0.0 0.00 0.00 0.00 91 1021.1
20260503030609 59 271 0.0 0.0 0.00 0.00 0.00 90 1021.1
20260503030106 59 271 0.0 0.0 0.00 0.00 0.00 89 1021.0
20260503025602 60 271 0.0 0.0 0.00 0.00 0.00 88 1020.9
20260503025100 60 272 0.0 0.0 0.00 0.00 0.00 88 1020.9
20260503024556 60 272 0.0 0.0 0.00 0.00 0.00 88 1021.1
20260503024054 60 272 0.0 0.0 0.00 0.00 0.00 87 1020.9
20260503023550 60 272 0.0 0.0 0.00 0.00 0.00 88 1021.1
20260503023048 60 272 0.0 0.0 0.00 0.00 0.00 87 1021.0
20260503022544 61 272 0.0 0.0 0.00 0.00 0.00 86 1020.8
20260503022038 61 271 0.0 0.0 0.00 0.00 0.00 86 1020.7
20260503021536 61 271 0.0 0.0 0.00 0.00 0.00 85 1020.7
20260503021032 62 272 0.0 0.0 0.00 0.00 0.00 84 1020.7
20260503020530 62 272 0.0 0.0 0.00 0.00 0.00 82 1020.6
20260503020026 63 272 0.0 0.0 0.00 0.00 0.00 81 1020.6
20260503015523 63 272 0.0 0.0 0.00 0.00 0.00 81 1020.5
20260503015020 63 272 0.0 0.0 0.00 0.00 0.00 80 1020.3
20260503014516 64 272 0.0 0.0 0.00 0.00 0.00 80 1020.3
20260503014014 64 272 0.0 0.0 0.00 0.00 0.00 79 1020.2
20260503013511 64 272 0.0 0.0 0.00 0.00 0.00 78 1020.2
20260503013009 65 272 0.0 0.0 0.00 0.00 0.00 76 1020.1
20260503012506 65 272 0.0 0.0 0.00 0.00 0.00 74 1020.2
20260503012002 66 272 0.0 0.0 0.00 0.00 0.00 70 1020.1
20260503011459 67 272 0.0 0.0 0.00 0.00 0.00 68 1020.1
20260503010956 68 272 0.0 0.0 0.00 0.00 0.00 67 1019.9
20260503010453 68 272 0.0 0.0 0.00 0.00 0.00 64 1019.9
20260503005950 69 272 0.0 0.0 0.00 0.00 0.00 62 1020.0
20260503005447 69 272 0.0 0.0 0.00 0.00 0.00 60 1019.8
20260503004944 70 272 0.0 0.0 0.00 0.00 0.00 58 1019.8
20260503004440 71 272 0.0 0.0 0.00 0.00 0.00 57 1019.7
20260503003938 71 272 0.0 0.0 0.00 0.00 0.00 56 1019.6
20260503003435 71 271 0.0 0.0 0.00 0.00 0.00 55 1019.6
20260503002932 72 271 0.0 1.0 0.00 0.00 0.00 54 1019.6
20260503002429 72 332 2.0 3.0 0.00 0.00 0.00 52 1019.6
20260503001926 73 273 1.0 2.0 0.00 0.00 0.00 52 1019.5
20260503001422 73 252 1.0 2.0 0.00 0.00 0.00 51 1019.6
20260503000920 73 267 1.0 1.0 0.00 0.00 0.00 51 1019.6
20260503000417 73 284 2.0 2.0 0.00 0.00 0.00 50 1019.5
20260502235914 74 292 1.0 2.0 0.00 0.00 0.00 50 1019.4
20260502235411 74 249 0.0 1.0 0.00 0.00 0.00 49 1019.2
20260502234908 74 4 2.0 3.0 0.00 0.00 0.00 48 1019.3
20260502234404 74 333 2.0 3.0 0.00 0.00 0.00 48 1019.1
20260502233902 74 345 4.0 4.0 0.00 0.00 0.00 47 1019.3
20260502233357 75 235 0.0 2.0 0.00 0.00 0.00 48 1019.3
20260502232854 74 26 3.0 7.0 0.00 0.00 0.00 48 1019.4
20260502232351 75 245 1.0 6.0 0.00 0.00 0.00 48 1019.3
20260502231847 75 13 5.0 7.0 0.00 0.00 0.00 47 1019.2
20260502231345 75 16 2.0 4.0 0.00 0.00 0.00 48 1019.2
20260502230843 75 288 2.0 3.0 0.00 0.00 0.00 47 1019.0
20260502230341 75 278 1.0 7.0 0.00 0.00 0.00 46 1019.1
20260502225838 75 302 4.0 8.0 0.00 0.00 0.00 46 1019.3
20260502225334 75 294 1.0 4.0 0.00 0.00 0.00 46 1019.4
20260502224831 76 293 2.0 7.0 0.00 0.00 0.00 46 1019.2
20260502224327 75 261 1.0 2.0 0.00 0.00 0.00 46 1019.2
20260502223825 76 220 2.0 3.0 0.00 0.00 0.00 44 1019.1
20260502223323 76 218 3.0 8.0 0.00 0.00 0.00 45 1019.3
20260502222820 75 215 0.0 1.0 0.00 0.00 0.00 46 1019.2
20260502222317 74 312 2.0 7.0 0.00 0.00 0.00 47 1019.3
20260502221813 75 304 4.0 11.0 0.00 0.00 0.00 45 1019.4